STARLINK-33994, 63931

Orbit data source: Space-Track

STARLINK-33994, 63931 is a payload satellite owned by SpaceX/Seattle (US) in LEO that was launched on Tue, 13 May 2025 UTC via an FALCON 9 launch vehicle from the Air Force Western Test Range (AFWTR). Payload-class satellites include a variety of spacecraft equipped with specific instruments for various scientific and technological missions. These include communications satellites like Starlink; space stations such as the ISS; scientific satellites like the Hubble; Earth observation satellites from companies like Planet Labs, Umbra, and HawkEye 360; GPS; miniature CubeSats for education and research; and military/defense satellites.

Loading next visibility...
Identifier
63931, 2025-098F
Orbit
LEO
Country
Flag of USUS
Related business
Manufacturer
SpaceX/Seattle
Mission
Operational Commercial Communications
Bus & Motor
STARLINK V2MO, Unknown motor
Mass
575 kg wet, ~530 kg dry
Launch date (UTC)
2025-05-13 (7 months ago)
Launch vehicle
FALCON 9
Launch site
Air Force Western Test Range (AFWTR)
Object type
Payload
Rocket body
Debris
Shape & HBR
Box + 2 Pan, 17.7 m
Radar Cross Section
36.964 m², Large (>1 m²)

Expand to show TLE details & history
Last TLE update: 13 hours ago

TLE from 13 hours ago
0 STARLINK-33994
1 63931U 25098F   25349.65057429  .00003803  00000-0  32624-3 0  9991
2 63931  70.0012 126.3734 0003063 273.1089  86.9720 14.98338366 33988
Epoch: 2025-12-15T15:36Z
TLE epoch observation values (Epoch: 2025-12-15T15:36:49.618Z)
Latitude
Longitude
167.62057°
Altitude
574.342 km
Speed
7.574 km/s
True Right ascension
08h 25m 29s
True Declination
0° 00' 00"
Sunlit
Object was in full shadow at epoch
Visualization orbit readout
Latitude
Unknown
Longitude
Unknown
Altitude
Unknown
Speed
Unknown
Apparent Right ascension
Unknown
Apparent Declination
Unknown
Sunlit
N/A
Visualization observer readout
Local Sidereal Time
03:10:34
Azimuth
Unknown
Elevation
Unknown
Doppler factor
Unknown
Orbital elements
Apogee altitude
572.106 km
Perigee altitude
567.85 km
Semi-major axis
6,948.115 km
Eccentricity
0.00031
Inclination
70.0012°
RAAN
126.3734°
Arg. of periapsis
273.1089°
True anomaly
87.00705°
Mean anomaly
86.972°
Eccentric anomaly
86.98953°
Mean motion
3.74751 °/min
Orbital period
96.06 mins
BSTAR
0.00032624
Loading maneuver chart data...
Computing Atmospheric mass density...
Loading historical data...
Loading historical data...
Loading historical data...
Loading historical data...
Loading historical data...
Loading historical data...
Loading historical data...

Documentation

Showing up to 5 results
|